User: anonymous   Login
Location: Unspecified
(0.0000°N, 0.0000°E)
Time: 12:59:01
(UTC+01:00)
Language:

SWIFT - Orbit

View from above orbital plane
View from above orbital plane
View from above satellite
View from above satellite

Ground track
Ground track

The orbit data is extracted from the following two-line orbital elements,

1 28485U 04047A   14325.03393153  .00006757  00000-0  49467-3 0  8160
2 28485 020.5561 208.2884 0011998 277.3898 082.5172 14.99987060546768
Epoch (UTC): 21 November 2014 00:48:51
Eccentricity: 0.0011998
inclination: 20.5561°
perigee height: 558 km
apogee height: 575 km
right ascension of ascending node: 208.2884°
argument of perigee: 277.3898°
revolutions per day: 14.99987060
mean anomaly at epoch: 82.5172°
orbit number at epoch: 54676

The dashed part of the orbit path shows where the satellite is in the earth's shadow,  

DLR